This demonstration page uses our WeatherBlox Daily Observations layout. Learn more.

Left ArrowRight Arrow

Hourly Observations for June 3, 2021

Temp ( °F °C ) Dew Point ( °F °C ) Humidity (%) Winds ( mph kmh ) Pressure ( in mb ) Visibility ( mi km ) Precip ( " mm )
12:53 am 00:53 Clear 66 18.9 57 13.9 73 73 NE 13 20 29.93 1014 10 16 0.00 0.00
1:53 am 01:53 Clear 65 18.3 57 13.9 76 76 N 5 7 29.89 1012 10 16 0.00 0.00
2:53 am 02:53 Mostly Clear 65 18.3 58 14.4 78 78 ESE 7 11 29.87 1012 10 16 0.00 0.00
3:53 am 03:53 Mostly Clear 66 18.9 58 14.4 75 75 ENE 18 30 29.88 1012 10 16 0.00 0.00
4:53 am 04:53 Clear 63 17.2 57 13.9 81 81 ENE 8 13 29.89 1012 10 16 0.00 0.00
5:53 am 05:53 Clear 62 16.7 58 14.4 86 86 N 6 9 29.90 1013 10 16 0.00 0.00
6:53 am 06:53 Sunny 61 16.1 58 14.4 90 90 NNW 3 6 29.93 1014 10 16 0.00 0.00
7:53 am 07:53 Sunny 63 17.2 59 15 87 87 NNE 5 7 29.94 1014 10 16 0.00 0.00
8:53 am 08:53 Sunny 65 18.3 58 14.4 78 78 E 6 9 29.97 1015 10 16 0.00 0.00
9:53 am 09:53 Sunny 67 19.4 59 15 76 76 VRB 5 7 29.96 1015 10 16 0.00 0.00
10:53 am 10:53 Sunny 70 21.1 59 15 68 68 Calm 29.95 1014 10 16 0.00 0.00
11:53 am 11:53 Sunny 73 22.8 58 14.4 59 59 Calm 29.93 1014 10 16 0.00 0.00
12:53 pm 12:53 Sunny 77 25 57 13.9 50 50 undefined N/A 29.92 1013 10 16 0.00 0.00
1:53 pm 13:53 Sunny 81 27.2 56 13.3 42 42 VRB 3 6 29.89 1012 10 16 0.00 0.00
2:53 pm 14:53 Mostly Sunny 82 27.8 54 12.2 38 38 undefined N/A 29.86 1011 10 16 0.00 0.00
3:53 pm 15:53 Mostly Sunny 84 28.9 52 11.1 33 33 NNE 9 15 29.84 1011 10 16 0.00 0.00
4:53 pm 16:53 Mostly Sunny 84 28.9 52 11.1 33 33 ENE 9 15 29.82 1010 10 16 0.00 0.00
5:31 pm 17:31 Partly Cloudy 83 28.3 58 14.4 43 43 ESE 16 26 29.75 1007 10 16 0.00 0.00
5:53 pm 17:53 Sunny 81 27.2 57 13.9 44 44 E 16 26 29.83 1010 10 16 0.00 0.00
6:53 pm 18:53 Sunny 81 27.2 58 14.4 45 45 ESE 16 26 29.84 1011 10 16 0.00 0.00
7:53 pm 19:53 Sunny 79 26.1 57 13.9 47 47 ESE 16 26 29.85 1011 10 16 0.00 0.00
8:53 pm 20:53 Sunny 76 24.4 58 14.4 54 54 ESE 14 22 29.88 1012 10 16 0.00 0.00
9:53 pm 21:53 Clear 73 22.8 57 13.9 57 57 SE 12 19 29.91 1013 10 16 0.00 0.00
10:53 pm 22:53 Clear 72 22.2 55 12.8 55 55 ESE 14 22 29.93 1013 10 16 0.00 0.00
11:53 pm 23:53 Clear 70 21.1 57 13.9 64 64 ESE 7 11 29.93 1013 10 16 0.00 0.00

Powered by AerisWeather